| time (UTC) | temp F | wind direction | speed MPH | gust MPH | rain 1hr in | rain 24hr in | rain mn in | humidity % | barometer mb |
| 20260504023107 | 50 | 144 | 4.0 | 6.0 | 0.01 | 0.02 | 0.01 | 94 | 1015.9 |
| 20260504022048 | 50 | 124 | 3.0 | 6.0 | 0.01 | 0.02 | 0.01 | 94 | 1015.9 |
| 20260504021112 | 49 | 124 | 3.0 | 6.0 | 0.01 | 0.02 | 0.01 | 93 | 1016.0 |
| 20260504020116 | 49 | 120 | 4.0 | 6.0 | 0.00 | 0.03 | 0.00 | 93 | 1016.1 |
| 20260504015035 | 50 | 143 | 3.0 | 6.0 | 0.00 | 0.04 | 0.00 | 93 | 1016.0 |
| 20260504014101 | 50 | 124 | 3.0 | 4.0 | 0.00 | 0.04 | 0.00 | 93 | 1016.1 |
| 20260504013021 | 50 | 134 | 3.0 | 4.0 | 0.00 | 0.04 | 0.00 | 93 | 1016.1 |
| 20260504012045 | 50 | 105 | 3.0 | 4.0 | 0.00 | 0.04 | 0.00 | 93 | 1016.2 |
| 20260504011108 | 50 | 115 | 2.0 | 3.0 | 0.00 | 0.04 | 0.00 | 93 | 1016.1 |
| 20260504010028 | 50 | 102 | 2.0 | 3.0 | 0.00 | 0.05 | 0.00 | 92 | 1016.2 |
| 20260504005052 | 50 | 109 | 2.0 | 4.0 | 0.00 | 0.05 | 0.00 | 92 | 1016.3 |
| 20260504004116 | 50 | 101 | 2.0 | 3.0 | 0.00 | 0.05 | 0.00 | 92 | 1016.3 |
| 20260504003036 | 51 | 99 | 2.0 | 3.0 | 0.00 | 0.05 | 0.00 | 91 | 1016.3 |
| 20260504002059 | 51 | 87 | 1.0 | 3.0 | 0.00 | 0.05 | 0.00 | 91 | 1016.3 |
| 20260504001020 | 51 | 86 | 1.0 | 3.0 | 0.00 | 0.05 | 0.00 | 90 | 1016.4 |
| 20260504000044 | 52 | 79 | 1.0 | 3.0 | 0.00 | 0.05 | 0.00 | 89 | 1016.3 |
| 20260503235108 | 52 | 86 | 1.0 | 2.0 | 0.00 | 0.05 | 0.00 | 88 | 1016.3 |
| 20260503234028 | 52 | 77 | 1.0 | 2.0 | 0.00 | 0.07 | 0.00 | 87 | 1016.4 |
| 20260503233052 | 53 | 74 | 1.0 | 2.0 | 0.00 | 0.09 | 0.00 | 85 | 1016.4 |
| 20260503232116 | 54 | 82 | 1.0 | 2.0 | 0.00 | 0.15 | 0.00 | 82 | 1016.4 |
| 20260503231037 | 54 | 37 | 0.0 | 1.0 | 0.00 | 0.17 | 0.00 | 79 | 1016.4 |
| 20260503225020 | 55 | 13 | 1.0 | 3.0 | 0.00 | 0.19 | 0.00 | 79 | 1016.5 |
| 20260503224044 | 55 | 31 | 1.0 | 3.0 | 0.00 | 0.19 | 0.00 | 79 | 1016.5 |
| 20260503223108 | 55 | 23 | 1.0 | 2.0 | 0.00 | 0.19 | 0.00 | 79 | 1016.5 |
| 20260503222048 | 55 | 19 | 1.0 | 3.0 | 0.00 | 0.19 | 0.00 | 79 | 1016.5 |
| 20260503221053 | 55 | 19 | 2.0 | 4.0 | 0.00 | 0.19 | 0.00 | 78 | 1016.6 |
| 20260503220116 | 55 | 28 | 2.0 | 4.0 | 0.00 | 0.19 | 0.00 | 79 | 1016.4 |
| 20260503215036 | 56 | 42 | 1.0 | 3.0 | 0.00 | 0.19 | 0.19 | 80 | 1016.4 |
| 20260503214027 | 56 | 21 | 2.0 | 4.0 | 0.00 | 0.19 | 0.19 | 80 | 1016.3 |
| 20260503213053 | 55 | 352 | 1.0 | 3.0 | 0.00 | 0.19 | 0.19 | 79 | 1016.3 |
| 20260503212117 | 55 | 8 | 2.0 | 3.0 | 0.00 | 0.19 | 0.19 | 80 | 1016.2 |
| 20260503211037 | 55 | 34 | 1.0 | 2.0 | 0.00 | 0.19 | 0.19 | 80 | 1016.2 |
| 20260503210100 | 55 | 18 | 2.0 | 3.0 | 0.00 | 0.19 | 0.19 | 81 | 1016.1 |
| 20260503205020 | 55 | 25 | 2.0 | 3.0 | 0.00 | 0.19 | 0.19 | 81 | 1016.1 |
| 20260503204044 | 56 | 3 | 3.0 | 4.0 | 0.00 | 0.19 | 0.19 | 81 | 1016.0 |
| 20260503203108 | 55 | 26 | 2.0 | 3.0 | 0.00 | 0.19 | 0.19 | 80 | 1015.8 |
| 20260503202048 | 55 | 29 | 2.0 | 4.0 | 0.00 | 0.19 | 0.19 | 80 | 1015.6 |
| 20260503201052 | 55 | 359 | 2.0 | 6.0 | 0.00 | 0.19 | 0.19 | 79 | 1015.5 |
| 20260503200115 | 56 | 5 | 2.0 | 6.0 | 0.00 | 0.19 | 0.19 | 80 | 1015.4 |
| 20260503195036 | 56 | 24 | 2.0 | 4.0 | 0.00 | 0.19 | 0.19 | 80 | 1015.4 |
| 20260503194059 | 56 | 13 | 2.0 | 4.0 | 0.00 | 0.19 | 0.19 | 79 | 1015.1 |
| 20260503193040 | 57 | 358 | 3.0 | 4.0 | 0.00 | 0.19 | 0.19 | 79 | 1015.0 |
| 20260503192044 | 57 | 350 | 3.0 | 8.0 | 0.00 | 0.19 | 0.19 | 79 | 1015.1 |
| 20260503191108 | 57 | 14 | 2.0 | 7.0 | 0.00 | 0.21 | 0.19 | 78 | 1014.9 |
| 20260503190028 | 57 | 1 | 2.0 | 6.0 | 0.00 | 0.22 | 0.19 | 79 | 1014.8 |
| 20260503185052 | 57 | 20 | 2.0 | 6.0 | 0.00 | 0.25 | 0.19 | 79 | 1014.9 |
| 20260503184116 | 57 | 4 | 3.0 | 7.0 | 0.00 | 0.27 | 0.19 | 79 | 1014.7 |
| 20260503183036 | 57 | 13 | 3.0 | 4.0 | 0.00 | 0.28 | 0.19 | 79 | 1014.9 |
| 20260503182100 | 57 | 6 | 3.0 | 6.0 | 0.00 | 0.28 | 0.19 | 79 | 1015.0 |
| 20260503181020 | 58 | 4 | 2.0 | 4.0 | 0.00 | 0.29 | 0.19 | 78 | 1014.9 |
| 20260503180125 | 58 | 8 | 2.0 | 6.0 | 0.00 | 0.29 | 0.19 | 77 | 1014.9 |
| 20260503175108 | 59 | 356 | 3.0 | 6.0 | 0.00 | 0.32 | 0.19 | 77 | 1014.9 |
| 20260503174027 | 59 | 0 | 3.0 | 8.0 | 0.00 | 0.39 | 0.19 | 76 | 1014.8 |
| 20260503173112 | 59 | 25 | 2.0 | 4.0 | 0.00 | 0.50 | 0.19 | 76 | 1014.7 |
| 20260503172116 | 59 | 5 | 1.0 | 6.0 | 0.00 | 0.51 | 0.19 | 75 | 1014.7 |
| 20260503171036 | 59 | 23 | 2.0 | 7.0 | 0.00 | 0.51 | 0.19 | 75 | 1014.4 |
| 20260503170120 | 59 | 353 | 4.0 | 9.0 | 0.00 | 0.51 | 0.19 | 73 | 1014.5 |
| 20260503160116 | 60 | 17 | 4.0 | 8.0 | 0.00 | 0.63 | 0.19 | 74 | 1014.3 |
| 20260503131037 | 61 | 357 | 2.0 | 6.0 | 0.00 | 1.08 | 0.19 | 73 | 1014.6 |
| 20260503120116 | 59 | 15 | 3.0 | 6.0 | 0.00 | 1.10 | 0.19 | 80 | 1014.7 |
| 20260503081052 | 54 | 70 | 0.0 | 1.0 | 0.01 | 1.15 | 0.19 | 95 | 1014.7 |
| 20260503080116 | 54 | 64 | 0.0 | 1.0 | 0.01 | 1.15 | 0.19 | 96 | 1014.7 |
| 20260503072044 | 53 | 49 | 0.0 | 1.0 | 0.00 | 1.14 | 0.18 | 96 | 1014.5 |
| 20260503071108 | 53 | 0.0 | 1.0 | 0.00 | 1.14 | 0.18 | 96 | 1014.5 | |
| 20260503060104 | 54 | 43 | 1.0 | 1.0 | 0.00 | 1.14 | 0.18 | 96 | 1014.1 |
| 20260503055107 | 54 | 0.0 | 1.0 | 0.00 | 1.14 | 0.18 | 96 | 1014.0 | |
| 20260503054028 | 54 | 68 | 0.0 | 1.0 | 0.00 | 1.14 | 0.18 | 96 | 1014.0 |
| 20260503053112 | 54 | 80 | 0.0 | 1.0 | 0.00 | 1.14 | 0.18 | 96 | 1013.9 |
| 20260503052115 | 54 | 79 | 1.0 | 2.0 | 0.00 | 1.14 | 0.18 | 96 | 1013.9 |
| 20260503051036 | 54 | 77 | 1.0 | 2.0 | 0.00 | 1.14 | 0.18 | 96 | 1013.9 |
| 20260503050100 | 54 | 78 | 1.0 | 1.0 | 0.00 | 1.14 | 0.18 | 96 | 1013.8 |
| 20260503045040 | 54 | 79 | 1.0 | 2.0 | 0.00 | 1.14 | 0.18 | 96 | 1013.8 |
| 20260503044044 | 54 | 83 | 1.0 | 2.0 | 0.00 | 1.14 | 0.18 | 96 | 1013.8 |
| 20260503043107 | 54 | 68 | 0.0 | 1.0 | 0.00 | 1.14 | 0.18 | 96 | 1013.9 |
| 20260503042027 | 54 | 73 | 0.0 | 2.0 | 0.00 | 1.14 | 0.18 | 96 | 1013.9 |
| 20260503041052 | 54 | 0.0 | 0.0 | 0.00 | 1.14 | 0.18 | 96 | 1013.9 | |
| 20260503040116 | 54 | 0.0 | 0.0 | 0.00 | 1.14 | 0.18 | 96 | 1013.9 | |
| 20260503035036 | 54 | 68 | 0.0 | 1.0 | 0.00 | 1.14 | 0.18 | 96 | 1014.1 |
| 20260503034121 | 54 | 75 | 1.0 | 2.0 | 0.00 | 1.14 | 0.18 | 96 | 1014.2 |
| 20260503033029 | 54 | 73 | 1.0 | 2.0 | 0.00 | 1.14 | 0.18 | 96 | 1014.3 |
| 20260503032105 | 54 | 71 | 1.0 | 1.0 | 0.00 | 1.14 | 0.18 | 96 | 1014.2 |
| 20260503031108 | 54 | 71 | 0.0 | 1.0 | 0.00 | 1.14 | 0.18 | 96 | 1014.2 |
| 20260503030029 | 54 | 0.0 | 0.0 | 0.02 | 1.14 | 0.18 | 96 | 1014.2 | |
| 20260503025113 | 55 | 0.0 | 0.0 | 0.03 | 1.14 | 0.18 | 96 | 1014.2 | |
| 20260503024116 | 54 | 0.0 | 1.0 | 0.03 | 1.14 | 0.18 | 96 | 1014.2 |